Photometre #541[Polarized_P] IASBS AOT

File : 20190923_541.hum

23/09/2019,03:19:15,TEMP=9.4,BA=5.40,STAT.A=Abs.,ExtBa=12.31
23/09/2019,03:22:27,TEMP=9.6,BA=5.20,STAT.A=Abs.,ExtBa=12.28
23/09/2019,03:26:11,TEMP=10.0,BA=5.20,STAT.A=Abs.,ExtBa=12.27
23/09/2019,03:30:37,TEMP=10.3,BA=5.56,STAT.A=Abs.,ExtBa=12.28
23/09/2019,03:35:58,TEMP=10.8,BA=5.56,STAT.A=Abs.,ExtBa=12.28
23/09/2019,03:42:33,TEMP=11.5,BA=5.60,STAT.A=Abs.,ExtBa=12.30
23/09/2019,03:50:52,TEMP=12.2,BA=5.60,STAT.B=Abs.,ExtBa=12.31
23/09/2019,03:57:55,TEMP=13.1,BA=5.60,STAT.A=Abs.,ExtBa=12.25
23/09/2019,03:59:38,TEMP=13.3,BA=5.60,STAT.A=Abs.,ExtBa=12.27
23/09/2019,04:04:15,TEMP=13.4,BA=5.28,STAT.A=Abs.,ExtBa=12.31
23/09/2019,04:09:55,TEMP=13.9,BA=5.28,STAT.A=Abs.,ExtBa=12.33
23/09/2019,04:16:25,TEMP=14.6,BA=5.32,STAT.C=Abs.,ExtBa=12.34
23/09/2019,04:29:35,TEMP=17.2,BA=5.28,STAT.A=Abs.,ExtBa=12.28
23/09/2019,04:32:47,TEMP=16.6,BA=5.28,STAT.A=Abs.,ExtBa=12.30
23/09/2019,04:43:20,TEMP=17.1,BA=5.60,STAT.A=Abs.,ExtBa=12.35
23/09/2019,04:56:12,TEMP=18.1,BA=5.60,STAT.A=Abs.,ExtBa=12.36
23/09/2019,05:12:20,TEMP=19.2,BA=5.56,STAT.B=Abs.,ExtBa=12.39
23/09/2019,05:24:03,TEMP=19.8,BA=5.52,STAT.D=Abs.,ExtBa=12.36
23/09/2019,05:39:04,TEMP=21.1,BA=5.52,STAT.F
23/09/2019,05:54:03,TEMP=22.5,BA=5.28,STAT.D=Abs.,ExtBa=12.35
23/09/2019,06:09:03,TEMP=23.1,BA=5.48,STAT.D=Abs.,ExtBa=12.37
23/09/2019,06:24:03,TEMP=23.8,BA=5.48,STAT.D=Abs.,ExtBa=12.39
23/09/2019,06:39:05,TEMP=24.5,BA=5.44,STAT.F
23/09/2019,06:54:03,TEMP=25.7,BA=5.28,STAT.D=Abs.,ExtBa=12.36
23/09/2019,07:09:03,TEMP=26.1,BA=5.44,STAT.D=Abs.,ExtBa=12.39
23/09/2019,07:24:03,TEMP=26.7,BA=5.40,STAT.D=Abs.,ExtBa=12.40
23/09/2019,07:39:05,TEMP=27.4,BA=5.40,STAT.F
23/09/2019,07:54:04,TEMP=28.7,BA=5.40,STAT.D=Abs.,ExtBa=12.39
23/09/2019,08:09:04,TEMP=30.2,BA=5.40,STAT.D=Abs.,ExtBa=12.40
23/09/2019,08:24:04,TEMP=30.1,BA=5.40,STAT.D=Abs.,ExtBa=12.41
23/09/2019,08:39:05,TEMP=30.7,BA=5.40,STAT.F
23/09/2019,08:54:04,TEMP=30.3,BA=5.40,STAT.D=Abs.,ExtBa=12.41
23/09/2019,09:09:03,TEMP=30.2,BA=5.40,STAT.D=Abs.,ExtBa=12.41
23/09/2019,09:24:04,TEMP=31.3,BA=5.40,STAT.D=Abs.,ExtBa=12.42
23/09/2019,09:39:05,TEMP=30.5,BA=5.36,STAT.F
23/09/2019,09:54:03,TEMP=29.2,BA=5.36,STAT.D=Abs.,ExtBa=12.42
23/09/2019,10:09:03,TEMP=29.0,BA=5.36,STAT.D=Abs.,ExtBa=12.43
23/09/2019,10:24:03,TEMP=29.7,BA=5.40,STAT.D=Abs.,ExtBa=12.42
23/09/2019,10:39:05,TEMP=29.5,BA=5.40,STAT.F
23/09/2019,10:54:03,TEMP=29.8,BA=5.28,STAT.D=Abs.,ExtBa=12.42
23/09/2019,11:09:03,TEMP=29.8,BA=5.36,STAT.D=Abs.,ExtBa=12.43
23/09/2019,11:24:03,TEMP=30.5,BA=5.40,STAT.D=Abs.,ExtBa=12.42
23/09/2019,11:39:04,TEMP=30.3,BA=5.40,STAT.F
23/09/2019,11:54:03,TEMP=30.3,BA=5.28,STAT.D=Abs.,ExtBa=12.40
23/09/2019,12:05:48,TEMP=30.0,BA=5.36,STAT.B=Abs.,ExtBa=12.41
23/09/2019,12:21:56,TEMP=29.4,BA=5.36,STAT.A=Abs.,ExtBa=12.39
23/09/2019,12:34:48,TEMP=28.8,BA=5.40,STAT.A=Abs.,ExtBa=12.40
23/09/2019,12:45:21,TEMP=28.7,BA=5.40,STAT.A=Abs.,ExtBa=12.40
23/09/2019,12:54:11,TEMP=28.4,BA=5.40,STAT.A=Abs.,ExtBa=12.40
23/09/2019,13:01:43,TEMP=28.2,BA=5.40,STAT.C=Abs.,ExtBa=12.40
23/09/2019,13:14:39,TEMP=28.6,BA=5.28,STAT.A=Abs.,ExtBa=12.35
23/09/2019,13:16:24,TEMP=28.1,BA=5.28,STAT.A=Abs.,ExtBa=12.36
23/09/2019,13:18:52,TEMP=27.6,BA=5.28,STAT.A=Abs.,ExtBa=12.36
23/09/2019,13:23:17,TEMP=27.1,BA=5.28,STAT.A=Abs.,ExtBa=12.36
23/09/2019,13:27:16,TEMP=27.0,BA=5.28,STAT.B=Abs.,ExtBa=12.36
23/09/2019,13:35:33,TEMP=26.5,BA=5.28,STAT.A=Abs.,ExtBa=12.34
23/09/2019,13:42:08,TEMP=26.0,BA=5.40,STAT.A=Abs.,ExtBa=12.34
23/09/2019,13:47:29,TEMP=25.9,BA=5.40,STAT.A=Abs.,ExtBa=12.34
23/09/2019,13:51:55,TEMP=25.8,BA=5.40,STAT.A=Abs.,ExtBa=12.34
23/09/2019,13:55:39,TEMP=25.8,BA=5.40,STAT.A=Abs.,ExtBa=12.33
23/09/2019,13:58:51,TEMP=25.8,BA=5.40,STAT.A=Abs.,ExtBa=12.34